7 * 24
多渠道服务支持
ORBCOMM FM09 是 ORBCOMM 卫星通信公司发射的一颗低轨(LEO)通信卫星,主要用于提供全球范围内的物联网(IoT)数据传输服务。该卫星运行在约 750 公里的近地轨道,支持低带宽、低功耗的设备通信,适用于物流跟踪、远程监控和环境监测等应用。作为 ORBCOMM 二代卫星网络的一部分,FM09 提升了系统容量和可靠性,为全球用户提供更高效的卫星通信解决方案。
| 数据来源 | 国际轨道数据 |
| 星历时间: | 2025-12-15T01:56:25+0800 1天前 查看轨道信息 |
| 半长轴: | 7117.034km |
| 偏心率: | 0.0006497 |
| 轨道倾角: | 45.013° |
| 近地点辐角 | 33.987° |
| 升交点赤经 | 225.181° |
| 平近点角 | 326.140° |
| 近地点: | 734.275km |
| 远地点: | 743.523km |
| 周期: | 99.588分钟 |
| 每日圈数: | 14.459531 |